Time,TemperatureF,DewpointF,PressureIn,WindDirection,WindDirectionDegrees,WindSpeedMPH,WindSpeedGustMPH,Humidity,HourlyPrecipIn,Conditions,Clouds,dailyrainin,SoftwareType,DateUTC
2013-06-06 00:03:00,53.5,52.0,29.96,East,101,1.0,5.0,94,0.01,,,0.34,weatherlink.com 1.10,2013-06-06 05:03:00,
2013-06-06 00:18:00,53.6,52.0,29.95,ENE,76,2.0,3.0,94,0.01,,,0.34,weatherlink.com 1.10,2013-06-06 05:18:00,
2013-06-06 00:33:00,53.5,52.0,29.95,ENE,74,3.0,4.0,94,0.02,,,0.35,weatherlink.com 1.10,2013-06-06 05:33:00,
2013-06-06 00:48:00,53.6,52.0,29.94,ENE,78,2.0,3.0,94,0.01,,,0.35,weatherlink.com 1.10,2013-06-06 05:48:00,
2013-06-06 01:03:00,53.8,52.0,29.94,ENE,78,1.0,5.0,94,0.01,,,0.00,weatherlink.com 1.10,2013-06-06 06:03:00,
2013-06-06 01:18:00,54.0,52.0,29.94,East,84,2.0,3.0,93,0.01,,,0.00,weatherlink.com 1.10,2013-06-06 06:18:00,
2013-06-06 01:33:00,54.1,53.0,29.93,East,79,1.0,3.0,94,0.00,,,0.00,weatherlink.com 1.10,2013-06-06 06:33:00,
2013-06-06 01:48:00,54.1,53.0,29.93,East,84,2.0,3.0,94,0.00,,,0.00,weatherlink.com 1.10,2013-06-06 06:48:00,
2013-06-06 02:03:00,54.1,53.0,29.92,ENE,61,1.0,2.0,94,0.00,,,0.00,weatherlink.com 1.10,2013-06-06 07:03:00,
2013-06-06 02:18:00,54.0,52.0,29.91,ENE,61,1.0,3.0,94,0.00,,,0.00,weatherlink.com 1.10,2013-06-06 07:18:00,
2013-06-06 02:33:00,54.0,52.0,29.91,East,82,2.0,3.0,94,0.00,,,0.00,weatherlink.com 1.10,2013-06-06 07:33:00,
2013-06-06 02:48:00,54.1,53.0,29.91,East,80,1.0,3.0,94,0.00,,,0.00,weatherlink.com 1.10,2013-06-06 07:48:00,
2013-06-06 03:03:00,54.1,53.0,29.90,East,88,2.0,3.0,94,0.00,,,0.00,weatherlink.com 1.10,2013-06-06 08:03:00,
2013-06-06 03:18:00,54.1,53.0,29.90,East,84,2.0,3.0,94,0.00,,,0.00,weatherlink.com 1.10,2013-06-06 08:18:00,
2013-06-06 03:33:00,54.3,53.0,29.89,East,86,2.0,3.0,94,0.00,,,0.00,weatherlink.com 1.10,2013-06-06 08:33:00,
2013-06-06 03:48:00,54.4,53.0,29.89,ESE,106,2.0,6.0,94,0.00,,,0.00,weatherlink.com 1.10,2013-06-06 08:48:00,
2013-06-06 04:03:00,54.4,53.0,29.89,East,90,0.0,3.0,94,0.00,,,0.00,weatherlink.com 1.10,2013-06-06 09:03:00,
2013-06-06 04:18:00,54.4,53.0,29.89,East,81,0.0,1.0,94,0.01,,,0.01,weatherlink.com 1.10,2013-06-06 09:18:00,
2013-06-06 04:33:00,54.4,53.0,29.89,East,81,1.0,2.0,95,0.05,,,0.05,weatherlink.com 1.10,2013-06-06 09:33:00,
2013-06-06 04:48:00,54.4,53.0,29.89,East,82,1.0,2.0,95,0.08,,,0.08,weatherlink.com 1.10,2013-06-06 09:48:00,
2013-06-06 05:03:00,54.4,53.0,29.89,East,86,1.0,2.0,96,0.09,,,0.09,weatherlink.com 1.10,2013-06-06 10:03:00,
2013-06-06 05:18:00,54.4,53.0,29.89,ESE,108,4.0,5.0,96,0.13,,,0.14,weatherlink.com 1.10,2013-06-06 10:18:00,
2013-06-06 05:33:00,54.4,53.0,29.88,East,95,2.0,2.0,96,0.11,,,0.16,weatherlink.com 1.10,2013-06-06 10:33:00,
2013-06-06 05:48:00,54.4,53.0,29.89,East,91,0.0,3.0,96,0.08,,,0.16,weatherlink.com 1.10,2013-06-06 10:48:00,
2013-06-06 06:03:00,54.5,53.0,29.89,East,92,1.0,2.0,96,0.07,,,0.16,weatherlink.com 1.10,2013-06-06 11:03:00,
2013-06-06 06:18:00,54.6,54.0,29.89,East,101,1.0,2.0,96,0.02,,,0.16,weatherlink.com 1.10,2013-06-06 11:18:00,
2013-06-06 06:33:00,54.7,54.0,29.89,East,101,0.0,1.0,96,0.00,,,0.16,weatherlink.com 1.10,2013-06-06 11:33:00,
2013-06-06 06:48:00,54.8,54.0,29.90,ESE,103,0.0,1.0,96,0.01,,,0.17,weatherlink.com 1.10,2013-06-06 11:48:00,
2013-06-06 07:03:00,54.8,54.0,29.90,ESE,104,0.0,0.0,96,0.03,,,0.19,weatherlink.com 1.10,2013-06-06 12:03:00,
2013-06-06 07:18:00,54.8,54.0,29.91,ESE,104,0.0,0.0,96,0.04,,,0.20,weatherlink.com 1.10,2013-06-06 12:18:00,
2013-06-06 07:33:00,55.0,54.0,29.91,ESE,104,0.0,1.0,97,0.07,,,0.23,weatherlink.com 1.10,2013-06-06 12:33:00,
2013-06-06 07:48:00,55.1,54.0,29.91,North,355,2.0,4.0,97,0.07,,,0.24,weatherlink.com 1.10,2013-06-06 12:48:00,
2013-06-06 08:03:00,55.0,54.0,29.91,ESE,114,1.0,3.0,97,0.06,,,0.25,weatherlink.com 1.10,2013-06-06 13:03:00,
2013-06-06 08:18:00,55.0,54.0,29.92,ESE,119,0.0,3.0,96,0.09,,,0.29,weatherlink.com 1.10,2013-06-06 13:18:00,
2013-06-06 08:33:00,54.9,54.0,29.92,ESE,107,0.0,3.0,96,0.11,,,0.34,weatherlink.com 1.10,2013-06-06 13:33:00,
2013-06-06 08:48:00,54.8,54.0,29.92,ESE,109,1.0,3.0,96,0.15,,,0.39,weatherlink.com 1.10,2013-06-06 13:48:00,
2013-06-06 09:03:00,55.0,54.0,29.93,ESE,109,1.0,2.0,96,0.17,,,0.42,weatherlink.com 1.10,2013-06-06 14:03:00,
2013-06-06 09:18:00,55.3,54.0,29.93,ESE,109,0.0,2.0,96,0.13,,,0.43,weatherlink.com 1.10,2013-06-06 14:18:00,
2013-06-06 09:33:00,55.6,55.0,29.93,ESE,109,1.0,2.0,96,0.08,,,0.43,weatherlink.com 1.10,2013-06-06 14:33:00,
2013-06-06 09:48:00,56.0,55.0,29.92,ESE,109,2.0,3.0,96,0.05,,,0.44,weatherlink.com 1.10,2013-06-06 14:48:00,
2013-06-06 10:03:00,56.0,55.0,29.92,ESE,109,1.0,4.0,96,0.04,,,0.46,weatherlink.com 1.10,2013-06-06 15:03:00,
2013-06-06 10:18:00,56.2,55.0,29.92,ESE,105,0.0,1.0,96,0.05,,,0.48,weatherlink.com 1.10,2013-06-06 15:18:00,
2013-06-06 10:33:00,56.3,55.0,29.91,ENE,73,1.0,3.0,96,0.07,,,0.50,weatherlink.com 1.10,2013-06-06 15:33:00,
2013-06-06 10:48:00,56.6,56.0,29.91,ENE,73,0.0,2.0,96,0.06,,,0.50,weatherlink.com 1.10,2013-06-06 15:48:00,
2013-06-06 11:03:00,57.3,57.0,29.91,ENE,76,1.0,2.0,97,0.05,,,0.51,weatherlink.com 1.10,2013-06-06 16:03:00,
2013-06-06 11:18:00,57.5,56.0,29.91,East,80,0.0,2.0,96,0.03,,,0.51,weatherlink.com 1.10,2013-06-06 16:18:00,
2013-06-06 11:33:00,58.1,57.0,29.91,ENE,69,2.0,3.0,97,0.01,,,0.51,weatherlink.com 1.10,2013-06-06 16:33:00,
2013-06-06 11:48:00,58.4,57.0,29.91,East,88,5.0,5.0,95,0.01,,,0.51,weatherlink.com 1.10,2013-06-06 16:48:00,
2013-06-06 12:04:00,58.8,57.0,29.90,ENE,64,1.0,5.0,94,0.00,,,0.51,weatherlink.com 1.10,2013-06-06 17:04:00,
2013-06-06 12:19:00,60.7,59.0,29.90,ENE,61,2.0,7.0,93,0.00,,,0.51,weatherlink.com 1.10,2013-06-06 17:19:00,
2013-06-06 12:34:00,61.9,59.0,29.90,East,90,2.0,5.0,90,0.00,,,0.51,weatherlink.com 1.10,2013-06-06 17:34:00,
2013-06-06 12:49:00,63.2,59.0,29.90,East,82,2.0,5.0,87,0.00,,,0.51,weatherlink.com 1.10,2013-06-06 17:49:00,
2013-06-06 13:04:00,63.8,60.0,29.89,East,90,5.0,7.0,88,0.00,,,0.51,weatherlink.com 1.10,2013-06-06 18:04:00,
2013-06-06 13:19:00,64.6,60.0,29.90,East,82,2.0,5.0,85,0.00,,,0.51,weatherlink.com 1.10,2013-06-06 18:19:00,
2013-06-06 13:34:00,65.1,58.0,29.90,ENE,74,3.0,5.0,79,0.00,,,0.51,weatherlink.com 1.10,2013-06-06 18:34:00,
2013-06-06 13:49:00,65.6,59.0,29.90,East,81,2.0,5.0,79,0.00,,,0.51,weatherlink.com 1.10,2013-06-06 18:49:00,
2013-06-06 14:04:00,65.4,58.0,29.91,East,87,2.0,5.0,78,0.00,,,0.51,weatherlink.com 1.10,2013-06-06 19:04:00,
2013-06-06 14:19:00,65.4,59.0,29.90,ESE,114,3.0,4.0,79,0.00,,,0.51,weatherlink.com 1.10,2013-06-06 19:19:00,
2013-06-06 14:34:00,65.5,58.0,29.91,East,98,2.0,5.0,77,0.00,,,0.51,weatherlink.com 1.10,2013-06-06 19:34:00,
2013-06-06 14:49:00,65.3,58.0,29.91,NE,51,1.0,4.0,78,0.00,,,0.51,weatherlink.com 1.10,2013-06-06 19:49:00,
2013-06-06 15:04:00,65.4,58.0,29.90,NE,56,1.0,6.0,77,0.00,,,0.51,weatherlink.com 1.10,2013-06-06 20:04:00,
2013-06-06 15:19:00,65.1,58.0,29.90,ENE,66,1.0,6.0,77,0.00,,,0.51,weatherlink.com 1.10,2013-06-06 20:19:00,
2013-06-06 15:34:00,65.6,57.0,29.90,NE,53,2.0,6.0,73,0.00,,,0.51,weatherlink.com 1.10,2013-06-06 20:34:00,
2013-06-06 15:49:00,64.9,56.0,29.90,East,86,2.0,6.0,72,0.00,,,0.51,weatherlink.com 1.10,2013-06-06 20:49:00,
2013-06-06 16:04:00,65.0,56.0,29.90,NNE,17,2.0,5.0,73,0.00,,,0.51,weatherlink.com 1.10,2013-06-06 21:04:00,
2013-06-06 16:19:00,64.7,56.0,29.90,ENE,71,3.0,6.0,74,0.00,,,0.51,weatherlink.com 1.10,2013-06-06 21:19:00,
2013-06-06 16:34:00,64.7,56.0,29.90,East,94,2.0,5.0,73,0.00,,,0.51,weatherlink.com 1.10,2013-06-06 21:34:00,
2013-06-06 16:49:00,64.7,55.0,29.90,ESE,105,2.0,5.0,70,0.00,,,0.51,weatherlink.com 1.10,2013-06-06 21:49:00,
2013-06-06 17:04:00,64.6,56.0,29.91,East,86,3.0,4.0,73,0.00,,,0.51,weatherlink.com 1.10,2013-06-06 22:04:00,
2013-06-06 17:19:00,64.3,55.0,29.90,NNE,33,2.0,3.0,73,0.00,,,0.51,weatherlink.com 1.10,2013-06-06 22:19:00,
2013-06-06 17:34:00,65.0,56.0,29.90,NE,40,3.0,3.0,73,0.00,,,0.51,weatherlink.com 1.10,2013-06-06 22:34:00,
2013-06-06 17:49:00,64.6,57.0,29.90,NE,53,2.0,3.0,75,0.00,,,0.51,weatherlink.com 1.10,2013-06-06 22:49:00,
2013-06-06 18:04:00,64.3,57.0,29.90,East,85,1.0,2.0,78,0.00,,,0.51,weatherlink.com 1.10,2013-06-06 23:04:00,
2013-06-06 18:19:00,63.7,56.0,29.91,ENE,78,2.0,3.0,77,0.00,,,0.51,weatherlink.com 1.10,2013-06-06 23:19:00,
2013-06-06 18:34:00,62.9,56.0,29.91,ENE,62,1.0,3.0,78,0.00,,,0.51,weatherlink.com 1.10,2013-06-06 23:34:00,
2013-06-06 18:49:00,62.3,55.0,29.91,East,92,1.0,2.0,76,0.00,,,0.51,weatherlink.com 1.10,2013-06-06 23:49:00,
2013-06-06 19:04:00,62.0,54.0,29.92,East,82,1.0,3.0,76,0.00,,,0.51,weatherlink.com 1.10,2013-06-07 00:04:00,
2013-06-06 19:19:00,61.2,53.0,29.91,ENE,74,2.0,2.0,75,0.00,,,0.51,weatherlink.com 1.10,2013-06-07 00:19:00,
2013-06-06 19:34:00,60.3,53.0,29.92,ENE,69,1.0,2.0,77,0.00,,,0.51,weatherlink.com 1.10,2013-06-07 00:34:00,
2013-06-06 19:49:00,59.6,53.0,29.92,ENE,59,0.0,2.0,80,0.00,,,0.51,weatherlink.com 1.10,2013-06-07 00:49:00,
2013-06-06 20:04:00,58.8,53.0,29.92,ENE,60,1.0,2.0,82,0.00,,,0.51,weatherlink.com 1.10,2013-06-07 01:04:00,
2013-06-06 20:19:00,57.9,52.0,29.91,ENE,61,1.0,2.0,82,0.00,,,0.51,weatherlink.com 1.10,2013-06-07 01:19:00,
2013-06-06 20:34:00,57.4,52.0,29.92,ENE,61,0.0,2.0,83,0.00,,,0.51,weatherlink.com 1.10,2013-06-07 01:34:00,
2013-06-06 20:49:00,56.8,52.0,29.91,East,80,1.0,3.0,84,0.00,,,0.51,weatherlink.com 1.10,2013-06-07 01:49:00,
2013-06-06 21:04:00,56.1,51.0,29.91,NE,54,1.0,4.0,83,0.00,,,0.51,weatherlink.com 1.10,2013-06-07 02:04:00,
2013-06-06 21:19:00,55.7,51.0,29.92,East,84,0.0,3.0,85,0.00,,,0.51,weatherlink.com 1.10,2013-06-07 02:19:00,
2013-06-06 21:34:00,55.4,51.0,29.93,East,84,0.0,1.0,86,0.00,,,0.51,weatherlink.com 1.10,2013-06-07 02:34:00,
2013-06-06 21:49:00,55.3,51.0,29.93,East,86,2.0,3.0,86,0.00,,,0.51,weatherlink.com 1.10,2013-06-07 02:49:00,
2013-06-06 22:04:00,55.2,51.0,29.94,ENE,73,1.0,2.0,85,0.00,,,0.51,weatherlink.com 1.10,2013-06-07 03:04:00,
2013-06-06 22:19:00,54.9,50.0,29.94,ENE,76,0.0,2.0,83,0.00,,,0.51,weatherlink.com 1.10,2013-06-07 03:19:00,
2013-06-06 22:34:00,54.4,49.0,29.94,ENE,76,1.0,2.0,83,0.00,,,0.51,weatherlink.com 1.10,2013-06-07 03:34:00,
2013-06-06 22:49:00,53.9,49.0,29.94,ENE,76,0.0,1.0,83,0.00,,,0.51,weatherlink.com 1.10,2013-06-07 03:49:00,
2013-06-06 23:04:00,53.4,49.0,29.94,ENE,76,0.0,0.0,85,0.00,,,0.51,weatherlink.com 1.10,2013-06-07 04:04:00,
2013-06-06 23:19:00,53.2,50.0,29.94,ENE,76,0.0,0.0,87,0.00,,,0.51,weatherlink.com 1.10,2013-06-07 04:19:00,
2013-06-06 23:34:00,52.8,50.0,29.93,ENE,76,0.0,1.0,89,0.00,,,0.51,weatherlink.com 1.10,2013-06-07 04:34:00,
2013-06-06 23:49:00,52.6,50.0,29.93,ENE,76,0.0,0.0,91,0.00,,,0.51,weatherlink.com 1.10,2013-06-07 04:49:00,